Port Edwards, WI

6:10 PM CDT on August 24, 2016 (GMT -0500)
Alexander Field South Wood County

Weather History for KISW - April, 2014

Change the Weather History Date:

Saturday, April 5, 2014

  Actual Average Record
Temperature  
Mean Temperature 36 °F -  
Max Temperature 52 °F 51 °F 79 °F (1991)
Min Temperature 21 °F 26 °F 12 °F (1979)
Degree Days  
Heating Degree Days 29    
Moisture  
Dew Point 25 °F    
Average Humidity 69    
Maximum Humidity 96    
Minimum Humidity 35    
Precipitation  
Precipitation 0.00 in - - ()
Sea Level Pressure  
Sea Level Pressure 30.12 in    
Wind  
Wind Speed 5 mph (WSW)    
Max Wind Speed 13 mph    
Max Gust Speed 20 mph    
Visibility 10 miles    
Events      
Averages and records for this station are not official NWS values.
T = Trace of Precipitation, MM = Missing Value Source: NWS Daily Summary

Daily Weather History Graph

Daily Weather History Graph

Search for Another Location

Airport or City:

Trip Planner

Search our weather history database for the weather conditions in past years. The results will help you decide how hot, cold, wet, or windy it might be!

Date:

Astronomy

Apr. 05, 2014 Rise Set
Actual Time 6:33 AM CDT 7:31 PM CDT
Civil Twilight 6:03 AM CDT 8:01 PM CDT
Nautical Twilight 5:28 AM CDT 8:36 PM CDT
Astronomical Twilight 4:51 AM CDT 9:13 PM CDT
Moon 10:32 AM CDT (4/5) 12:49 AM CDT (4/5)
Length of Visible Light 13h 57m
Length of Day
12h 58m
Waxing Crescent, 34% of the Moon is Illuminated
Apr 5
Waxing Crescent
Apr 7
First Quarter
Apr 15
Full
Apr 22
Last Quarter
Apr 29
New

Hourly Weather History & Observations

Time (CDT) Temp. Windchill Dew Point Humidity Pressure Visibility Wind Dir Wind Speed Gust Speed Precip Events Conditions
12:54 AM 28.9 °F 21.1 °F 25.0 °F 85% 30.05 in 10.0 mi NW 8.1 mph - N/A   Clear
1:54 AM 27.0 °F 23.0 °F 24.1 °F 89% 30.06 in 10.0 mi WSW 3.5 mph - N/A   Clear
2:54 AM 25.0 °F 19.3 °F 23.0 °F 92% 30.07 in 10.0 mi West 4.6 mph - N/A   Clear
3:54 AM 23.0 °F - 21.0 °F 92% 30.09 in 10.0 mi Calm Calm - N/A   Clear
4:54 AM 23.0 °F - 21.0 °F 92% 30.11 in 9.0 mi Calm Calm - N/A   Clear
5:54 AM 21.9 °F - 19.9 °F 92% 30.13 in 7.0 mi Calm Calm - N/A   Clear
6:54 AM 21.0 °F - 19.0 °F 92% 30.15 in 7.0 mi Calm Calm - N/A   Clear
7:54 AM 27.0 °F - 26.1 °F 96% 30.16 in 8.0 mi Calm Calm - N/A   Clear
8:54 AM 30.9 °F 26.2 °F 28.0 °F 89% 30.18 in 10.0 mi West 4.6 mph - N/A   Clear
9:54 AM 35.1 °F 31.0 °F 28.9 °F 78% 30.18 in 10.0 mi WSW 4.6 mph - N/A   Clear
10:54 AM 39.0 °F 33.4 °F 28.9 °F 67% 30.19 in 10.0 mi West 8.1 mph - N/A   Clear
11:54 AM 44.1 °F 39.5 °F 28.9 °F 55% 30.17 in 10.0 mi WSW 8.1 mph - N/A   Clear
12:54 PM 46.0 °F 40.6 °F 25.0 °F 44% 30.17 in 10.0 mi West 11.5 mph 19.6 mph N/A   Partly Cloudy
1:54 PM 48.0 °F - 25.0 °F 41% 30.15 in 10.0 mi West 12.7 mph - N/A   Clear
2:54 PM 48.9 °F - 26.1 °F 41% 30.13 in 10.0 mi West 9.2 mph - N/A   Clear
3:54 PM 50.0 °F - 25.0 °F 38% 30.12 in 10.0 mi WSW 11.5 mph - N/A   Clear
4:54 PM 51.1 °F - 25.0 °F 36% 30.10 in 10.0 mi SSW 10.4 mph - N/A   Clear
5:54 PM 51.1 °F - 24.1 °F 35% 30.09 in 10.0 mi SW 8.1 mph - N/A   Clear
6:54 PM 48.0 °F - 26.1 °F 42% 30.09 in 10.0 mi SSW 8.1 mph - N/A   Clear
7:54 PM 43.0 °F 41.3 °F 26.1 °F 51% 30.10 in 10.0 mi SSW 3.5 mph - N/A   Clear
8:54 PM 37.0 °F - 26.1 °F 65% 30.11 in 10.0 mi Calm Calm - N/A   Clear
9:54 PM 33.1 °F 30.0 °F 26.1 °F 75% 30.12 in 10.0 mi SSW 3.5 mph - N/A   Clear
10:54 PM 30.9 °F 27.5 °F 26.1 °F 82% 30.11 in 10.0 mi South 3.5 mph - N/A   Clear
11:54 PM 30.9 °F 26.2 °F 25.0 °F 79% 30.09 in 10.0 mi South 4.6 mph - N/A   Clear